Regional Weather Roundup
Issued by NWS Bismarck, ND

Home | Current Version | Previous Version | Text Only | Print | Product List | Glossary On
Versions: 1 2 3 4 5 6 7 8 9 10 11 12 13 14 15 16 17 18 19 20 21 22 23 24 25 26 27 28 29 30 31 32 33 34 35 36 37 38 39 40 41 42 43 44 45 46 47 48 49 50
000
ASUS43 KBIS 021802
RWRBIS

NWR BROADCAST TEXT
NATIONAL WEATHER SERVICE BISMARCK ND
100 PM CDT TUE JUN 02 2015

NOTE: "FAIR" INDICATES FEW OR NO CLOUDS BELOW 12,000 FEET WITH NO
SIGNIFICANT WEATHER AND/OR OBSTRUCTIONS TO VISIBILITY.


CITY           SKY/WX    TMP DP  RH WIND       PRES   REMARKS
WILLISTON      RAIN      59  57  93 N9        29.80F FOG
MINOT          CLOUDY    66  60  81 NE13      29.80S
MINOT AFB      CLOUDY    64  64 100 E13       29.80S
BISMARCK       CLOUDY    74  63  68 NW6       29.75F
DICKINSON      MOSUNNY   73  58  59 MISG      29.78S
GARRISON         N/A     68  62  81 E10       29.78F
HETTINGER ARPT SUNNY     76  60  57 W9        29.79S
JAMESTOWN      CLOUDY    67  61  81 S8        29.77F
CARRINGTON     LGT RAIN  64  64 100 N6        29.80F
OAKES            N/A     72  64  78 S18       29.77F
STANLEY        LGT RAIN  57  57 100 NE10G18   29.84F
$$

CITY           SKY/WX    TMP DP  RH WIND       PRES   REMARKS
GRAND FORKS    CLOUDY    66  58  75 S7        29.81S
GRAND FORKS AF CLOUDY    65  57  75 SE6       29.82R
DEVILS LAKE    CLOUDY    66  59  77 E9        29.81S
FARGO          CLOUDY    70  58  65 S31G39    29.78R
CAVALIER       LGT RAIN  61  57  88 W3        29.84S
GRAFTON        CLOUDY    63  59  88 CALM      29.83S
LANGDON        DRIZZLE   59  59 100 E13       29.85S
ROLLA          CLOUDY    57  57 100 NE13G18   29.87R
$$

CITY           SKY/WX    TMP DP  RH WIND       PRES   REMARKS
ABERDEEN       SUNNY     76  63  64 S24G33    29.77F
MOBRIDGE       SUNNY     83  62  49 S13       29.70F
BUFFALO          N/A     75  59  57 W21       29.77S
RAPID CITY     MOSUNNY   76  60  57 N13       29.83S
GLASGOW        LGT RAIN  56  50  80 N9        29.88S
SIDNEY         CLOUDY    61  55  82 S9        29.77R
WOLF POINT     RAIN      56  52  86 N18G25    29.84F FOG
GLENDIVE       PTSUNNY   63  57  82 W15G22    29.82S
MILES CITY     PTSUNNY   63  56  78 NW15      29.86S
BAKER          PTSUNNY   69  57  65 W21G26    29.84S
$$

CITY           SKY/WX    TMP DP  RH WIND       PRES   REMARKS
BILLINGS       MOSUNNY   70  52  52 NW7       29.90F
GREAT FALLS    MOSUNNY   67  49  52 SW12      29.87F
$$




USA.gov is the U.S. government's official web portal to all federal, state and local government web resources and services.